www.pogodaiklimat.ru

Погода и климат >> Архив погоды >> Великобритания >> Авмор


ПОГОДА на Авморе

  • Прогноз погоды на Авморе
  • Монитор погоды на Авморе

АРХИВ ПОГОДЫ на Авморе

Время (UTC), дата Ветер
(напр.,м/с)
 
Видим.   Явления Облачность Т
(С)
Тd
(С)
f
(%)
Тe
(С)
Тes
(С)
Комфортность P
(гПа)
Po
(гПа)
Тmin
(С)
Tmax
(С)
R
(мм)
R24
(мм)
S
(см)
01 13.09 ЮЗ 2 35 км н/о +8.4 +5.4 81 +7 +7 1026.9 998.9
02 13.09 ЮЗ 2 35 км н/о +8.2 +4.6 78 +7 +7 1027.3 999.3
03 13.09 ЮЗ 2 29 км н/о +7.3 +4.8 84 +6 +6 1027.8 999.7
04 13.09 ЮЗ 2 30 км н/о +8.4 +5.2 80 +7 +7 1028.0 1000.0
05 13.09 ЮЗ 3 29 км н/о +8.5 +4.7 77 +6 +6 1028.6 1000.6
06 13.09 ЮЗ 3 27 км н/о +8.2 +4.8 79 +6 +6 1029.6 1001.5 +7.1
07 13.09 ЮЗ 2 30 км н/о +8.9 +5.7 80 +7 +7 1030.1 1002.1
08 13.09 Ю 2 20 км н/о +9.5 +6.0 79 +8 +8 1030.6 1002.6
09 13.09 ЮЗ 3 21 км н/о +10.6 +6.7 77 +9 +9 1031.0 1003.1
10 13.09 ЮЗ 3 18 км н/о +13.5 +7.2 66 +13 +13 1031.2 1003.6
11 13.09 ЮЗ 3 25 км в посл. час дождь н/о +14.2 +6.4 59 +14 +14 1031.2 1003.6
12 13.09 ЮЗ 3 26 км н/о +14.5 +5.1 53 +14 +14 1031.3 1003.8 0.0
13 13.09 ЮЗ 4 21 км н/о +15.3 +4.9 50 +14 +14 1031.7 1004.3
14 13.09 ЮЗ 4 28 км н/о +15.2 +5.6 53 +14 +14 1031.8 1004.3
15 13.09 ЮЗ 4 29 км слаб. ливневой дождь н/о +14.1 +4.4 52 +13 +13 1032.0 1004.4
16 13.09 ЮЗ 3 30 км в посл. час дождь н/о +14.1 +5.0 54 +13 +13 1031.9 1004.4
17 13.09 ЮЗ 3 30 км н/о +12.7 +5.3 61 +12 +12 1032.3 1004.5
18 13.09 ЮЗ 2 29 км н/о +11.3 +5.9 69 +10 +10 1032.6 1004.7 +16.1 0.0
19 13.09 ЮЗ 2 30 км н/о +10.4 +6.9 79 +9 +9 1033.0 1005.0
20 13.09 ЮЗ 3 27 км н/о +10.2 +7.2 82 +8 +8 1032.7 1004.7
21 13.09 ЮЗ 3 40 км н/о +10.0 +6.9 81 +8 +8 1032.7 1004.7
22 13.09 ЮЗ 3 30 км н/о +9.8 +7.0 83 +8 +8 1032.6 1004.6
23 13.09 ЮЗ 2 28 км н/о +9.8 +7.5 86 +8 +8 1032.4 1004.4
00 14.09 Ю 3 25 км н/о +9.9 +7.4 84 +8 +8 1031.8 1003.8
01 14.09 ЮЗ 2 30 км н/о +9.8 +7.4 85 +9 +9 1031.0 1003.0
02 14.09 ЮЗ 3 30 км н/о +10.3 +7.0 80 +8 +8 1030.1 1002.2
03 14.09 ЮЗ 3 35 км н/о +10.6 +5.9 73 +9 +9 1028.5 1000.7
04 14.09 ЮЗ 3 30 км н/о +10.6 +6.6 76 +9 +9 1027.2 999.4
05 14.09 ЮЗ 3 30 км н/о +10.9 +6.6 75 +9 +9 1025.2 997.5
06 14.09 ЮЗ 4 35 км н/о +11.6 +6.6 71 +9 +9 1022.8 995.2 +9.6
07 14.09 ЮЗ 7-13
{15}
20 км н/о +12.2 +7.1 71 +9 +9 1022.2 994.7
08 14.09 ЮЗ 7-15
{17}
30 км н/о +12.0 +7.8 75 +9 +9 1022.3 994.8
09 14.09 ЮЗ 5-10
{16}
21 км в посл. час дождь н/о +11.7 +8.3 80 +9 +9 1021.6 994.1
10 14.09 ЮЗ 5 3200 м слаб. морось н/о +11.0 +9.5 90 +8 +8 1020.9 993.3
11 14.09 ЮЗ 5-11
{14}
2700 м морось с дождем н/о +11.0 +10.1 94 +8 +8 1019.8 992.3
12 14.09 ЮЗ 5-11
{13}
50 км в посл. час дождь н/о +12.1 +10.4 89 +10 +10 1018.0 990.6 0.8
13 14.09 ЮЗ 5 11 км дым н/о +13.9 +11.1 83 +12 +12 1016.3 989.1
14 14.09 ЮЗ 4-9
{14}
4200 м слаб. морось н/о +12.9 +11.5 91 +11 +11 1016.5 989.3
15 14.09 ЮЗ 4 2900 м слаб. морось н/о +13.2 +12.2 94 +11 +11 1014.8 987.6
16 14.09 ЮЗ 5-11
{13}
30 км слаб. морось с дождем н/о +13.9 +12.5 91 +12 +12 1013.3 986.2
17 14.09 ЮЗ 4-10
{15}
19 км слаб. дождь н/о +14.3 +12.6 90 +13 +13 1013.1 986.1
18 14.09 ЮЗ 3 40 км слаб. дождь н/о +14.3 +12.6 90 +13 +13 1013.4 986.3 +14.4 2
19 14.09 ЮЗ 3 9000 м ливневой дождь н/о +14.6 +12.2 86 +14 +14 1013.7 986.7
20 14.09 З 4
{13}
50 км слаб. дождь н/о +13.6 +9.4 76 +12 +12 1014.6 987.4
21 14.09 ЮЗ 4-11
{13}
45 км слаб. дождь н/о +11.1 +7.3 77 +9 +9 1015.3 987.9
22 14.09 ЮЗ 3 30 км в посл. час дождь н/о +10.9 +7.0 77 +9 +9 1015.4 988.0
23 14.09 ЮЗ 3 20 км н/о +10.3 +6.6 78 +9 +9 1015.6 988.1
00 15.09 ЮЗ 3 14 км н/о +10.9 +6.2 73 +9 +9 1015.3 987.9 0.4
01 15.09 ЮЗ 3 15 км н/о +9.6 +4.0 68 +7 +7 1015.8 988.3
02 15.09 ЮЗ 2 12 км н/о +9.5 +5.1 74 +8 +8 1015.9 988.3
03 15.09 ЮЗ 2 15 км н/о +9.7 +4.2 69 +8 +8 1016.5 988.9
04 15.09 ЮЗ 3 14 км н/о +9.1 +4.2 71 +7 +7 1017.0 989.3
05 15.09 ЮЗ 3 14 км н/о +8.6 +3.7 71 +7 +7 1017.4 989.7
06 15.09 ЮЗ 3 14 км н/о +9.0 +3.8 70 +7 +7 1017.6 989.9 +8.4 0.4
07 15.09 ЮЗ 3 12 км н/о +9.4 +3.4 66 +7 +7 1018.0 990.3
08 15.09 ЮЗ 3 11 км н/о +9.7 +3.8 67 +8 +8 1018.9 991.3
09 15.09 ЮЗ 4 12 км н/о +10.5 +4.1 65 +8 +8 1018.7 991.1
10 15.09 ЮЗ 3 15 км н/о +11.2 +4.4 63 +10 +10 1018.8 991.3
11 15.09 З 5 16 км н/о +12.8 +3.8 54 +11 +11 1019.7 992.3
12 15.09 З 3 12 км н/о +13.5 +3.7 51 +13 +13 1019.9 992.6
13 15.09 ЮЗ 3 27 км н/о +14.3 +4.2 51 +14 +14 1020.3 993.0
14 15.09 З 4 19 км н/о +14.1 +3.4 48 +13 +13 1020.1 992.8
15 15.09 З 3 18 км н/о +13.5 +3.8 52 +13 +13 1020.3 992.9
16 15.09 ЮЗ 2 17 км н/о +13.1 +4.5 56 +13 +13 1020.1 992.7
17 15.09 ЮЗ 2 19 км н/о +11.8 +3.1 55 +11 +11 1020.2 992.7
18 15.09 З 1 28 км н/о +10.2 +1.8 56 +10 +10 1020.7 993.1 +14.8
19 15.09 ЮЗ 1 25 км н/о +8.3 +3.8 73 +8 +8 1021.3 993.4
20 15.09 З 2 22 км н/о +5.9 +3.0 82 +4 +4 1021.8 993.7
21 15.09 З 2 24 км н/о +7.2 +4.0 80 +5 +5 1021.7 993.7
22 15.09 ЮЗ 1 27 км н/о +6.7 +2.8 76 +6 +6 1021.9 993.9
23 15.09 З 3 24 км н/о +5.9 +3.2 83 +3 +3 1021.6 993.5
00 16.09 З 3 25 км н/о +6.4 +3.4 81 +4 +4 1021.6 993.5
01 16.09 З 1 24 км н/о +6.0 +3.6 85 +5 +5 1021.3 993.2
02 16.09 З 2 20 км н/о +6.2 +4.7 90 +4 +4 1021.1 993.1
03 16.09 ЮЗ 2 22 км н/о +7.6 +5.0 84 +6 +6 1020.8 992.9
04 16.09 ЮВ 1 16 км н/о +5.5 +4.2 91 +5 +5 1020.8 992.7
05 16.09 ЮЗ 2 20 км н/о +5.7 +5.3 97 +4 +4 1020.2 992.2
06 16.09 Ю 3 23 км н/о +6.8 +5.3 90 +4 +4 1019.9 991.9 +4.7
07 16.09 Ю 2 26 км н/о +7.1 +5.1 87 +5 +5 1020.0 992.1
08 16.09 Ю 2 19 км н/о +8.9 +6.0 82 +7 +7 1019.9 992.1
09 16.09 ЮЗ 2 29 км н/о +10.2 +6.7 79 +9 +9 1020.0 992.4
10 16.09 ЮЗ 2 29 км н/о +11.1 +6.7 74 +10 +10 1020.3 992.8
11 16.09 ЮЗ 3 35 км н/о +14.0 +7.5 65 +13 +13 1019.6 992.3
12 16.09 ЮЗ 4 30 км н/о +13.0 +5.4 60 +12 +12 1019.9 992.5
13 16.09 ЮЗ 2 40 км в посл. час дождь н/о +13.0 +6.2 63 +12 +12 1019.7 992.4
14 16.09 З 2 21 км в посл. час дождь н/о +12.5 +6.2 65 +12 +12 1019.9 992.5
15 16.09 ЮЗ 3 50 км в посл. час дождь н/о +12.7 +5.8 63 +11 +11 1019.6 992.2
16 16.09 З 3 40 км в посл. час дождь н/о +12.1 +6.0 66 +11 +11 1019.8 992.3
17 16.09 З 2 35 км в посл. час дождь н/о +10.6 +7.6 82 +10 +10 1020.3 992.7
18 16.09 ЮЗ 2 21 км в посл. час дождь н/о +9.9 +7.3 84 +9 +9 1020.4 992.7 +14.2 0.0
19 16.09 ЮЗ 2 45 км в посл. час дождь н/о +8.1 +5.5 84 +7 +7 1020.6 992.7
20 16.09 З 1 40 км н/о +7.2 +5.4 88 +6 +6 1021.4 993.4
21 16.09 ЮЗ 2 35 км н/о +8.7 +5.9 83 +7 +7 1021.2 993.4
22 16.09 ЮЗ 1 35 км в посл. час дождь н/о +7.5 +5.1 85 +7 +7 1021.4 993.4
23 16.09 ЮЗ 2 24 км н/о +7.2 +2.5 72 +5 +5 1021.8 993.8
00 17.09 ЮЗ 1 15 км слаб. ливневой дождь н/о +7.1 +3.0 75 +6 +6 1021.8 993.9 0.2
01 17.09 З 2 11 км слаб. ливневой дождь н/о +7.5 +4.4 81 +6 +6 1022.1 994.1
02 17.09 Ю 1 21 км в посл. час дождь н/о +6.6 +3.3 79 +6 +6 1022.4 994.4
03 17.09 ЮЗ 1 19 км н/о +5.8 +2.9 82 +5 +5 1022.7 994.6
04 17.09 ЮЗ 2 23 км н/о +6.1 +1.9 74 +4 +4 1022.8 994.7
05 17.09 ЮЗ 1 20 км н/о +4.8 +1.6 80 +4 +4 1023.3 995.1
06 17.09 Ю 2 21 км н/о +5.0 +2.5 84 +3 +3 1024.1 995.9 +4.3 0.2
07 17.09 ЮЗ 1 27 км н/о +4.9 +3.4 90 +5 +5 1024.7 996.5
08 17.09 ЮЗ 1 21 км в посл. час дождь н/о +7.8 +4.6 80 +7 +7 1025.1 997.1
09 17.09 СЗ 3 18 км н/о +9.8 +3.5 65 +8 +8 1024.9 997.1
10 17.09 СЗ 2 17 км н/о +9.6 +4.4 70 +8 +8 1025.8 998.0
11 17.09 С 2 26 км н/о +10.6 +3.3 61 +10 +10 1026.2 998.4
12 17.09 Ю 2 30 км н/о +11.1 +1.5 52 +11 +11 1026.1 998.4 0.0
13 17.09 СЗ 2 21 км н/о +11.6 +2.9 55 +11 +11 1026.5 998.9
14 17.09 С 2 30 км н/о +11.8 +1.9 51 +11 +11 1026.7 999.1
15 17.09 СЗ 2 22 км н/о +11.4 +1.9 52 +11 +11 1027.0 999.3
16 17.09 СЗ 2 30 км н/о +11.4 +1.4 50 +11 +11 1026.8 999.1
17 17.09 СЗ 2 30 км н/о +10.9 +1.3 51 +10 +10 1027.5 999.7
18 17.09 СЗ 1 24 км н/о +9.6 +3.6 66 +10 +10 1026.9 999.1 +12.0 0.0
19 17.09 СЗ 1 29 км н/о +8.1 +4.7 79 +7 +7 1027.8 999.8
20 17.09 З 1 27 км н/о +7.4 +4.9 84 +8 +8 1028.4 1000.3
21 17.09 ЮЗ 1 23 км н/о +7.2 +5.1 86 +7 +7 1028.7 1000.6
22 17.09 З 1 28 км н/о +6.9 +5.3 90 +7 +7 1028.9 1000.7
23 17.09 ЮЗ 1 26 км н/о +6.8 +5.4 91 +7 +7 1028.8 1000.6
00 18.09 З 1 15 км слаб. ливневой дождь н/о +6.7 +5.8 94 +7 +7 1028.8 1000.6 0.0
01 18.09 З 1 12 км слаб. ливневой дождь н/о +6.7 +6.1 96 +7 +7 1028.7 1000.5
02 18.09 ЮЗ 1 6000 м слаб. морось н/о +6.7 +6.1 96 +7 +7 1028.5 1000.3
03 18.09 ЮВ 1 9000 м в посл. час дождь н/о +6.8 +6.2 96 +6 +6 1027.8 999.6
04 18.09 Ю 2 3700 м слаб. дождь н/о +6.8 +6.0 95 +5 +5 1027.6 999.4
05 18.09 ЮЗ 1 4700 м слаб. дождь н/о +7.1 +6.5 96 +6 +6 1027.4 999.2
06 18.09 ЮЗ 1 30 км в посл. час дождь н/о +7.5 +6.9 96 +6 +6 1027.1 999.0 +6.7 2
07 18.09 ЮЗ 2 35 км н/о +7.8 +6.9 94 +6 +6 1027.1 999.1
08 18.09 ЮЗ 2 35 км н/о +8.7 +7.5 92 +7 +7 1027.0 999.1
09 18.09 ЮЗ 3 30 км н/о +10.0 +8.3 89 +8 +8 1026.9 999.0
10 18.09 ЮЗ 2 30 км н/о +10.9 +9.0 88 +9 +9 1026.9 999.1
11 18.09 Ю 2 35 км н/о +12.6 +10.4 86 +12 +12 1026.8 999.3
12 18.09 Ю 3 45 км н/о +14.2 +10.8 80 +13 +13 1026.8 999.3
13 18.09 ЮЗ 2 50 км н/о +15.0 +11.2 78 +15 +15 1026.6 999.2
14 18.09 ЮЗ 2 28 км н/о +15.4 +11.8 79 +16 +16 1026.8 999.4
15 18.09 Ю 1 45 км н/о +16.1 +12.5 79 +17 +17 1026.8 999.5
16 18.09 З 2 40 км н/о +16.4 +11.8 74 +17 +17 1026.8 999.6
17 18.09 ЮЗ 1 50 км в посл. час дождь н/о +15.2 +13.2 88 +16 +16 1027.3 1000.0
18 18.09 СЗ 2 5000 м слаб. морось с дождем н/о +14.7 +12.5 87 +15 +15 1027.7 1000.3 +16.7 0.0
19 18.09 СВ 1 50 км в посл. час дождь н/о +13.7 +12.4 92 +14 +14 1028.1 1000.6
20 18.09 Ю 1 50 км н/о +13.0 +12.2 95 +14 +14 1028.6 1001.0
21 18.09 З 1 50 км н/о +11.8 +10.8 94 +12 +12 1029.0 1001.2
22 18.09 ЮЗ 1 50 км н/о +12.0 +11.0 94 +12 +12 1029.2 1001.5
23 18.09 ЮЗ 2 50 км н/о +11.9 +10.9 94 +11 +11 1029.3 1001.6
00 19.09 Ю 1 50 км н/о +11.3 +10.4 94 +11 +11 1029.5 1001.7 0.0
01 19.09 ЮЗ 1 50 км н/о +10.2 +9.4 95 +10 +10 1029.5 1001.6
02 19.09 ЮВ 1 35 км н/о +9.5 +9.0 97 +10 +10 1029.3 1001.4
03 19.09 З 1 45 км н/о +10.5 +10.1 97 +11 +11 1029.3 1001.4
04 19.09 Ю 1 45 км н/о +11.4 +10.9 97 +11 +11 1028.9 1001.1
05 19.09 Ю 3 26 км н/о +12.0 +10.4 90 +11 +11 1028.7 1001.0
06 19.09 Ю 1 50 км н/о +12.1 +10.2 88 +12 +12 1028.9 1001.2 +9.5 0.0
07 19.09 Ю 2 50 км н/о +12.1 +10.2 88 +11 +11 1028.8 1001.1
08 19.09 ЮЗ 2 45 км н/о +12.8 +10.7 87 +12 +12 1029.1 1001.4
09 19.09 Ю 2 45 км н/о +13.2 +10.8 85 +12 +12 1029.2 1001.6
10 19.09 Ю 3 40 км н/о +14.9 +11.7 81 +14 +14 1028.7 1001.3
11 19.09 Ю 3 30 км н/о +17.2 +12.2 72 +17 +17 1028.1 1000.9
12 19.09 ЮЗ 3 45 км н/о +18.2 +12.1 68 +19 +19 1027.7 1000.6
13 19.09 Ю 2 50 км н/о +19.2 +12.2 64 +21 +21 комфорт 1027.5 1000.5
14 19.09 Ю 2 50 км н/о +19.9 +12.4 62 +22 +22 комфорт 1027.1 1000.2
15 19.09 ЮЗ 3 45 км н/о +19.3 +12.4 64 +21 +21 комфорт 1026.9 1000.0
16 19.09 ЮЗ 2 50 км н/о +18.4 +12.4 68 +19 +19 1027.0 1000.0
17 19.09 ЮЗ 2 45 км н/о +16.8 +11.3 70 +17 +17 1027.2 1000.0
18 19.09 Ю 1 45 км н/о +13.9 +10.3 79 +15 +15 1027.7 1000.2 +19.9
19 19.09 З 1 50 км н/о +12.9 +9.9 82 +13 +13 1027.9 1000.3
20 19.09 З 1 50 км н/о +9.9 +7.6 86 +9 +9 1028.3 1000.4
21 19.09 ЮЗ 1 50 км н/о +9.1 +7.9 92 +8 +8 1028.6 1000.6
22 19.09 З 1 50 км н/о +8.6 +7.8 95 +8 +8 1028.7 1000.7
23 19.09 СЗ 1 45 км н/о +8.0 +7.0 93 +8 +8 1028.7 1000.6
00 20.09 З 1 45 км н/о +7.6 +7.0 96 +7 +7 1028.5 1000.4

 

Местоположение метеостанции Авмор (Великобритания): широта 57.20 долгота -3.83 высота над уровнем моря 228 м.

В архиве по умолчанию представлена погода на Авморе за последнюю неделю. Архивные данные за месяц целиком и за предыдущие месяцы, начиная с января 2011 года, Вы можете получить, выбрав интересующий диапазон дат из раскрывающегося списка и нажав кнопку "Ввод!".


*Определитесь, кто Вы:
робот инопланетянин человек

Внимание! Время в таблицах - всемирное. Для получения местного времени необходимо прибавить поправку, которая равна 0 ч.

Смотрите также архив погоды в соседних городах и на ближайших метеорологических станциях:

Погода на Кайрнгорме (Великобритания) (15 км)
Погода на Кэрнуэлле (Великобритания) (43 км)
Погода в Кинлоссе (Великобритания) (52 км)
Погода в Абойне (Великобритания) (62 км)
Погода на Станции Tulloch Bridge (Великобритания) (64 км)
Погода в Лоссимуте (Великобритания) (65 км)
Погода в Тейн-Рендже (Великобритания) (69 км)
Погода на Горе Аонах Мор (Великобритания) (81 км)
Погода на Озере Гласкарнок (Великобритания) (85 км)
Погода в Гленогле (Великобритания) (92 км)

Пояснения к столбцам:

Ветер - указаны скорость ветра в м/с - средняя за 10 мин, порывы в срок и между сроками (в фигурных скобках) и направление, откуда дует ветер: С - северный, СВ - северо-восточный, В - восточный, ЮВ - юго-восточный, Ю - южный, ЮЗ - юго-западный, З - западный, СЗ - северо-западный.
Видимость - горизонтальная дальность видимости в метрах или километрах. При видимости от 1 до 10 км при отсутствии осадков обычно наблюдается дымка, при ухудшении видимости до 1 км и менее - туман. В сухую погоду видимость может ухудшаться дымом, пылью или мглою.
Явления - указаны атмосферные явления, наблюдавшиеся в срок или в последний час перед сроком; фигурными скобками обозначены явления, наблюдавшиеся между сроками (за 1-3 часа до срока); квадратными скобками обозначены град или гололедные отложения с указанием их диаметра в мм.
Облачность - указаны через наклонную черту общая и нижняя облачность в баллах и высота нижней границы облаков в метрах; квадратными скобками обозначены формы облаков: Ci - перистые, Cs - перисто-слоистые, Cc - перисто-кучевые, Ac - высококучевые, As - высокослоистые, Sc - слоисто-кучевые, Ns - слоисто-дождевые, Cu - кучевые, Cb - кучево-дождевые. Подробнее классификацию облаков см. в Атласе облаков (PDF).
T - Температура воздуха - температура, измеренная на высоте 2 м над землей.
Td - Температура точки росы - температура, при понижении до которой содержащийся в воздухе водяной пар достигнет насыщения.
f - Относительная влажность воздуха - влажноcть воздуха, измеренная на высоте 2 м над землей.
Te - Эффективная температура - температура, которую ощущает одетый по сезону человек в тени. Характеристика душности погоды. При расчете учитывается влияние влажности воздуха и скорости ветра на теплоощущения человека.
Tes - Эффективная температура на солнце - температура, которую ощущает человек, с поправкой на солнечный нагрев. Характеристика знойности погоды. Зависит от высоты солнца над горизонтом, облачности и скорости ветра. Ночью, в пасмурную погоду, а также при ветре 12 м/с и более поправка равна нулю.
P - Атмосферное давление - приведенное к уровню моря атмосферное давление.
Po - Атмосферное давление - измеренное на уровне метеостанции атмосферное давление.
Tmin - Минимальная температура - минимум температуры воздуха на высоте 2 м над землей.
Tmax - Максимальная температура - максимум температуры воздуха на высоте 2 м над землей.
R - Количество осадков - Количество выпавших осадков за период времени, мм. При наведении курсора мыши на число - период времени, за который выпало указанное количество осадков.
R24 - Количество осадков - Количество выпавших осадков за 24 часа, мм.
S - Снежный покров - Высота снежного покрова, см. При наведении курсора мыши на число - состояние снежного покрова и степень покрытия местности в баллах.